This is the latest recevied weather packets stored in our database for station/object KD4MBW. If no packets are shown the sender has not sent any weather packets the latest 1 day(s).
| Time | Temp. | Humidity | Pressure | Rain* | Wind** | Luminosity | Snow |
|---|---|---|---|---|---|---|---|
| 1777979200 | 12.22° C | 96% | 1015.4 hPa | 0 mm | 0.89 m/s, 341° | 8 W/m² | - |
| 1777978898 | 12.22° C | 97% | 1015.6 hPa | 0 mm | 0.89 m/s, 103° | 5 W/m² | - |
| 1777978595 | 12.22° C | 97% | 1015.5 hPa | 0 mm | 0.45 m/s, 282° | 3 W/m² | - |
| 1777978290 | 12.22° C | 97% | 1015.6 hPa | 0 mm | 0.45 m/s, 345° | 1 W/m² | - |
| 1777977987 | 12.22° C | 97% | 1015.5 hPa | 0 mm | 0.45 m/s, 315° | 1 W/m² | - |
| 1777977685 | 12.22° C | 97% | 1015.4 hPa | 0 mm | 1.34 m/s, 90° | 0 W/m² | - |
| 1777977381 | 12.22° C | 97% | 1015.5 hPa | 0 mm | 0.89 m/s, 327° | 0 W/m² | - |
| 1777977079 | 12.22° C | 97% | 1015.4 hPa | 0 mm | 0 m/s | 0 W/m² | - |
| 1777976776 | 12.22° C | 96% | 1015.4 hPa | 0 mm | 0.45 m/s, 333° | 0 W/m² | - |
| 1777976474 | 12.78° C | 96% | 1015.5 hPa | 0 mm | 1.34 m/s, 334° | 0 W/m² | - |
| 1777976172 | 12.78° C | 96% | 1015.5 hPa | 0 mm | 0.45 m/s, 77° | 0 W/m² | - |
| 1777975868 | 12.78° C | 96% | 1015.8 hPa | 0 mm | 0.45 m/s, 6° | 0 W/m² | - |
| 1777975565 | 12.78° C | 96% | 1015.5 hPa | 0 mm | 0.89 m/s, 323° | 0 W/m² | - |
| 1777975262 | 12.78° C | 97% | 1015.4 hPa | 0 mm | 1.79 m/s, 97° | 0 W/m² | - |
| 1777974958 | 12.22° C | 98% | 1015.4 hPa | 0 mm | 0.89 m/s, 100° | 0 W/m² | - |
| 1777974654 | 12.22° C | 98% | 1015.4 hPa | 0 mm | 0 m/s | 0 W/m² | - |
| 1777974351 | 12.22° C | 99% | 1015.5 hPa | 0 mm | 0.89 m/s, 332° | 0 W/m² | - |
| 1777974047 | 12.22° C | 99% | 1015.6 hPa | 0 mm | 0.89 m/s, 52° | 0 W/m² | - |
| 1777973743 | 11.67° C | 98% | 1015 hPa | 0 mm | 0.45 m/s, 303° | 0 W/m² | - |
| 1777973441 | 11.67° C | 98% | 1014.9 hPa | 0 mm | 0.89 m/s, 84° | 0 W/m² | - |
| 1777973138 | 11.67° C | 98% | 1014.8 hPa | 0 mm | 0.89 m/s, 38° | 0 W/m² | - |
| 1777972837 | 12.22° C | 98% | 1014.7 hPa | 0 mm | 0.89 m/s, 335° | 0 W/m² | - |
| 1777972533 | 12.22° C | 98% | 1015 hPa | 0 mm | 0.45 m/s, 120° | 0 W/m² | - |
| 1777972232 | 11.67° C | 99% | 1014.8 hPa | 0 mm | 0.89 m/s, 98° | 0 W/m² | - |
| 1777971929 | 11.67° C | 99% | 1014.9 hPa | 0 mm | 0 m/s | 0 W/m² | - |
* Rain latest hour (hover to see other rain measurements)
** Current wind speed in m/s (hover to see current wind gust speed)